Regional Weather Roundup
Issued by NWS

Home | Current Version | Previous Version | Graphics & Text | Print | Product List | Glossary On
Versions: 1 2 3 4 5 6 7 8 9 10 11 12 13 14 15 16 17 18 19 20 21 22 23 24 25 26 27 28 29 30 31 32 33 34 35 36 37 38 39 40 41 42 43 44 45 46 47 48 49 50
000
ASUS45 KBOU 290107
RWRCO

WEATHER ROUNDUP FOR COLORADO
NATIONAL WEATHER SERVICE DENVER/BOULDER CO
700 PM MDT FRI AUG 28 2015

NOTE: "FAIR" INDICATES FEW OR NO CLOUDS BELOW 12000 FEET WITH NO
SIGNIFICANT WEATHER AND/OR OBSTRUCTIONS TO VISIBILITY.

COZ001>005-013-030-031-290200-
...NORTHWEST COLORADO...

CITY           SKY/WX    TMP DP  RH WIND       PRES   REMARKS
CRAIG          CLEAR     77  46  33 SE5       30.25F
HAYDEN         NOT AVBL
MEEKER         CLEAR     78  37  22 SE6       30.26F
MOUNT WERNER   NOT AVBL
STEAMBOAT SPGS CLEAR     73  44  35 CALM      30.32S
WALDEN         CLEAR     64  37  36 CALM      30.41F
$$

COZ006>008-011-290200-
...WEST CENTRAL VALLEYS...

CITY           SKY/WX    TMP DP  RH WIND       PRES   REMARKS
GRAND JUNCTION CLEAR     85  40  20 W5        30.12F
MONTROSE       CLEAR     80  44  27 NW8       30.22S
EAGLE          PTCLDY    79  34  19 CALM      30.29S
RIFLE          CLEAR     83  39  21 W6        30.19S
DELTA          CLEAR     85  42  22 SW6       30.16F
NUCLA          CLEAR     81  34  18 NE7       30.24F
$$

COZ017>023-064>068-290200-
...SOUTHWEST COLORADO...

CITY           SKY/WX    TMP DP  RH WIND       PRES   REMARKS
DURANGO        CLEAR     81  38  21 SW7       30.21F
CORTEZ         CLEAR     83  33  16 N8        30.16S
PAGOSA SPRINGS CLEAR     78  35  21 SW6       30.30S
TELLURIDE      PTCLDY    66  36  32 CALM      30.45S
WOLF CREEK PAS PTCLDY    54  28  37 N6        30.68F
$$

COZ009-010-012-014-032>034-037-058>063-290200-
...CENTRAL COLORADO...

CITY           SKY/WX    TMP DP  RH WIND       PRES   REMARKS
ASPEN          CLEAR     70  42  36 CALM      30.37R
BUENA VISTA    PTCLDY    72  30  21 N7        30.36R
COPPER MTN     CLOUDY    55  34  44 W14       30.70S
BERTHOUD PASS  FAIR      45  32  61 N5        30.75S THUNDER
COTTONWOOD PAS CLOUDY    66  23  19 CALM      30.52R
GUNNISON       PTCLDY    72  37  28 NW7       30.36S
KREMMLING      PTCLDY    70  36  28 NW12      30.37S
LEADVILLE      CLEAR     62  31  31 NW6       30.52S
MONARCH PASS   CLOUDY    54  32  43 CALM      30.78S
SALIDA         PTCLDY    73  36  26 S7        30.39S
SUNLIGHT       PTCLDY    59  43  55 CALM      30.64S
WILKERSON PASS CLOUDY    52  37  58 E10       30.67S
$$

COZ069>075-290200-
...SAN LUIS VALLEY/SANGRE DE CRISTO MOUNTAINS...

CITY           SKY/WX    TMP DP  RH WIND       PRES   REMARKS
ALAMOSA        CLEAR     73  40  30 E12       30.29S
LA VETA PASS   PTCLDY    55  39  54 MISG      30.54S
SAGUACHE       PTCLDY    72  43  35 CALM      30.34S
$$

COZ035-036-038>040-290200-
...NORTHERN COLORADO FRONT RANGE...

CITY           SKY/WX    TMP DP  RH WIND       PRES   REMARKS
DENVER INTL AP PTCLDY    78  36  21 NE6       30.21S
DMNS CITY PARK   N/A     78  41  26 E6G16     30.21R
AURORA         PTCLDY    76  42  29 NE6       30.24R
FRONT RANGE AP PTCLDY    77  36  22 N7        30.23R
ERIE MUNI ARPT PTCLDY    80  39  23 E3        30.19S THUNDER
BOULDER MUN AP PTCLDY    79  45  29 SW3       30.21R THUNDER
CENTENNIAL     PTCLDY    78  43  28 NE7       30.25R
BROOMFIELD     MOCLDY    79  41  25 N5          N/A
FORT COLLINS   CLEAR     77  43  29 S7        30.17R
LONGMONT       CLEAR     81  45  28 CALM      30.21S
$$

COZ041-046-047-076>085-087-088-290200-
...PIKES PEAK/PALMER DIVIDE AND SOUTHERN FOOTHILLS...

CITY           SKY/WX    TMP DP  RH WIND       PRES   REMARKS
COLO. SPRINGS  MOCLDY    74  42  31 NE9       30.27S
A. F. ACADEMY  PTCLDY    72  44  35 NE8       30.29R
ELLICOTT       PTCLDY   N/A N/A N/A NE6       30.26R
FALCON         PTCLDY    71  41  34 MISG      30.33S
FORT CARSON    MOCLDY    76  49  38 W3        30.24R
LIMON          CLEAR     75  46  35 N7        30.21R
MONUMENT HILL  CLEAR     68  37  32 N6        30.34S
TRINIDAD       PTCLDY    78  44  29 NE7       30.22R
$$

COZ042>045-048>051-090-091-290200-
...NORTHEAST COLORADO...

CITY           SKY/WX    TMP DP  RH WIND       PRES   REMARKS
GREELEY ARPT   CLEAR     82  45  26 CALM      30.16S
AKRON          CLEAR     78  38  23 NE9       30.16R
BURLINGTON     CLEAR     78  41  26 N7        30.12R
WRAY           CLEAR     83  45  26 N6        30.08S
STERLING       CLEAR     81  48  32 NE3       30.11R
HOLYOKE        CLEAR     81  46  30 NE6       30.09S
FORT MORGAN    CLEAR     76  42  28 NE7       30.15S
$$

COZ086-089-092>099-290200-
...SOUTHEAST COLORADO...

CITY           SKY/WX    TMP DP  RH WIND       PRES   REMARKS
PUEBLO         MOCLDY    85  45  24 E7        30.14S
LA JUNTA       CLEAR     86  46  24 N7        30.11R
LAMAR          PTCLDY    84  52  33 NE8       30.04R
SPRINGFIELD      N/A     84  47  27 N7        30.10S
$$




USA.gov is the U.S. government's official web portal to all federal, state and local government web resources and services.